Weather History for KHRT - June, 2013

Change the Weather History Date:

Wednesday, June 12, 2013

  Actual Average (WUND) Record (WUND)
Temperature  
Mean Temperature 81 °F -  
Max Temperature 90 °F - - (-1)
Min Temperature 73 °F - - (-1)
Cooling Degree Days 16    
Growing Degree Days 31 (Base 50)    
Moisture  
Dew Point 82 °F    
Average Humidity 97    
Maximum Humidity 100    
Minimum Humidity 84    
Precipitation  
Precipitation 0.00 in - - ()
Sea Level Pressure  
Sea Level Pressure 30.05 in    
Wind  
Wind Speed 5 mph (WSW)    
Max Wind Speed 13 mph    
Max Gust Speed -    
Visibility 10 miles    
Events      
Averages and records for this station are not official NWS values.
T = Trace of Precipitation, MM = Missing Value Source: NWS Daily Summary

Daily Weather History Graph

Daily Weather History Graph

Search for Another Location

Airport or City:

Trip Planner

Search our weather history database for the weather conditions in past years. The results will help you decide how hot, cold, wet, or windy it might be!

Date:

Astronomy

Jun. 12, 2013 Rise Set
Actual Time 5:44 AM CDT 7:49 PM CDT
Civil Twilight 5:16 AM CDT 8:17 PM CDT
Nautical Twilight 4:43 AM CDT 8:50 PM CDT
Astronomical Twilight 4:07 AM CDT 9:26 PM CDT
Moon 9:11 AM CDT (6/12) 10:38 PM CDT (6/12)
Length of Visible Light 15h 00m
Length of Day
14h 05m
Waxing Crescent, 14% of the Moon is Illuminated
Jun 12
Waxing Crescent
Jun 16
First Quarter
Jun 23
Full
Jun 29
Last Quarter
Jul 8
New

Hourly Weather History & Observations

Time (CDT) Temp. Heat Index Dew Point Humidity Pressure Visibility Wind Dir Wind Speed Gust Speed Precip Events Conditions
12:55 AM 80.6 °F 89.3 °F 80.6 °F 100% 30.06 in 10.0 mi Calm Calm - N/A   Clear
1:55 AM 78.8 °F - 78.8 °F 100% 30.05 in 10.0 mi Calm Calm - N/A   Clear
2:55 AM 78.8 °F - 78.8 °F 100% 30.05 in 10.0 mi Calm Calm - N/A   Clear
3:55 AM 75.2 °F - 75.2 °F 100% 30.05 in 6.0 mi Calm Calm - N/A   Clear
4:55 AM 77.0 °F - 77.0 °F 100% 30.06 in 10.0 mi Calm Calm - N/A   Clear
5:55 AM 73.4 °F - 73.4 °F 100% 30.07 in 10.0 mi West 3.5 mph - N/A   Clear
6:57 AM 78.8 °F - 78.8 °F 100% 30.08 in 10.0 mi WNW 5.8 mph - N/A   Clear
7:59 AM 82.4 °F 96.1 °F 82.4 °F 100% 30.09 in 10.0 mi WNW 8.1 mph - N/A   Clear
8:55 AM 84.2 °F 103.5 °F 84.2 °F 100% 30.09 in 10.0 mi WNW 6.9 mph - N/A   Partly Cloudy
9:57 AM 87.8 °F 115.4 °F 86.0 °F 94% 30.08 in 10.0 mi WSW 6.9 mph - N/A   Partly Cloudy
10:59 AM 87.8 °F 111.7 °F 84.2 °F 89% 30.09 in 10.0 mi SW 11.5 mph - N/A   Partly Cloudy
11:59 AM 87.8 °F 111.7 °F 84.2 °F 89% 30.09 in 10.0 mi WSW 10.4 mph - N/A   Partly Cloudy
12:58 PM 89.6 °F 115.0 °F 84.2 °F 84% 30.08 in 10.0 mi WSW 10.4 mph - N/A   Partly Cloudy
1:56 PM 87.8 °F 108.2 °F 82.4 °F 84% 30.07 in 10.0 mi SW 11.5 mph - N/A   Mostly Cloudy
2:56 PM 87.8 °F 111.7 °F 84.2 °F 89% 30.06 in 10.0 mi SW 10.4 mph - N/A   Partly Cloudy
3:56 PM 87.8 °F 115.4 °F 86.0 °F 94% 30.04 in 10.0 mi WSW 12.7 mph - N/A   Partly Cloudy
4:56 PM 86.0 °F 111.5 °F 86.0 °F 100% 30.02 in 10.0 mi WSW 11.5 mph - N/A   Partly Cloudy
5:56 PM 86.0 °F 107.7 °F 84.2 °F 94% 30.01 in 10.0 mi WSW 10.4 mph - N/A   Partly Cloudy
6:57 PM 84.2 °F 103.5 °F 84.2 °F 100% 30.01 in 10.0 mi WSW 10.4 mph - N/A   Partly Cloudy
7:57 PM 84.2 °F 103.5 °F 84.2 °F 100% 30.02 in 10.0 mi WSW 9.2 mph - N/A   Partly Cloudy
8:56 PM 82.4 °F 96.1 °F 82.4 °F 100% 30.02 in 10.0 mi WSW 10.4 mph - N/A   Clear
9:56 PM 82.4 °F 96.1 °F 82.4 °F 100% 30.03 in 10.0 mi WSW 10.4 mph - N/A   Clear
10:55 PM 82.4 °F 96.1 °F 82.4 °F 100% 30.03 in 10.0 mi West 6.9 mph - N/A   Clear
11:59 PM 82.4 °F 96.1 °F 82.4 °F 100% 30.03 in 10.0 mi West 6.9 mph - N/A   Clear